KB7BSA Weather Reports


time (UTC)temp
F
wind
direction
speed
knots
gust
knots
rain 1hr
in
rain 24hr
in
rain mn
in
humidity
%
barometer
mb
20211017160110 55 208 0.0 3.5 0.00 0.00 0.00 60
20211017154619 53 208 0.0 3.5 0.00 0.00 0.00 62
20211017153044 52 208 0.9 4.3 0.00 0.00 0.00 66
20211017151543 51 208 0.0 2.6 0.00 0.00 0.00 69
20211017150028 49 208 0.0 3.5 0.00 0.00 0.00 69
20211017144538 48 208 0.0 1.7 0.00 0.00 0.00 69
20211017143036 47 208 0.0 3.5 0.00 0.00 0.00 71
20211017141518 46 208 0.0 2.6 0.00 0.00 0.00 71
20211017140004 45 208 0.0 1.7 0.00 0.00 0.00 69
20211017134629 45 208 0.0 2.6 0.00 0.00 0.00 67
20211017133129 45 208 0.0 2.6 0.00 0.00 0.00 64
20211017131628 0 0.0 0.0 0.00 0.00 0.00
20211017130049 0 0.0 0.0 0.00 0.00 0.00
20211017124624 0 0.0 0.0 0.00 0.00 0.00
20211017123041 0 0.0 0.0 0.00 0.00 0.00
20211017121549 43 208 0.0 0.0 0.00 0.00 0.00 26
20211017120029 43 208 0.0 0.0 0.00 0.00 0.00 30
20211017114556 43 208 0.0 0.0 0.00 0.00 0.00 33
20211017113041 43 208 0.0 0.0 0.00 0.00 0.00 33
20211017111527 44 208 0.0 0.0 0.00 0.00 0.00 38
20211017110026 44 208 0.0 0.0 0.00 0.00 0.00 46
20211017104516 44 208 0.0 0.0 0.00 0.00 0.00 43
20211017103001 44 208 0.0 0.0 0.00 0.00 0.00 43
20211017101623 44 208 0.0 0.0 0.00 0.00 0.00 46
20211017100122 45 208 0.0 0.0 0.00 0.00 0.00 51
20211017094628 45 208 0.0 0.0 0.00 0.00 0.00 50
20211017093056 44 208 0.0 0.0 0.00 0.00 0.00 48
20211017091647 45 208 0.0 0.0 0.00 0.00 0.00 45
20211017090057 45 208 0.0 0.0 0.00 0.00 0.00 40
20211017084549 44 208 0.0 0.0 0.00 0.00 0.00 39
20211017083104 45 208 0.0 0.0 0.00 0.00 0.00 42
20211017081558 45 208 0.0 0.0 0.00 0.00 0.00 48
20211017080028 45 208 0.0 0.0 0.00 0.04 0.00 45
20211017074518 45 208 0.0 0.0 0.00 0.04 0.00 43
20211017073017 45 208 0.0 0.0 0.00 0.04 0.00 43
20211017071513 46 208 0.0 0.0 0.00 0.04 0.00 44
20211017064720 46 208 0.0 0.0 0.00 0.04 0.00 52
20211017063108 46 208 0.0 0.0 0.00 0.04 0.00 59
20211017061613 46 208 0.0 0.0 0.00 0.04 0.00 62
20211017060118 46 208 0.0 0.0 0.00 0.04 0.00 64
20211017054556 47 208 0.0 0.0 0.00 0.04 0.00 67
20211017053049 47 208 0.0 0.0 0.00 0.04 0.00 68
20211017051610 47 208 0.0 0.0 0.00 0.04 0.00 69
20211017050054 47 208 0.0 0.0 0.00 0.04 0.04 71
20211017044551 48 208 0.0 0.0 0.00 0.04 0.04 73
20211017043105 48 208 0.0 0.0 0.00 0.04 0.04 74
20211017041513 48 208 0.0 0.0 0.00 0.04 0.04 74
20211017040015 48 208 0.0 0.0 0.00 0.04 0.04 75
20211017034504 48 208 0.0 0.0 0.00 0.04 0.04 75
20211017033129 49 208 0.0 0.0 0.00 0.04 0.04 75
20211017031641 49 208 0.0 0.0 0.00 0.04 0.04 75
20211017030144 49 208 0.0 0.0 0.00 0.04 0.04 75
20211017024603 49 208 0.0 0.0 0.00 0.04 0.04 75
20211017023108 50 208 0.0 0.0 0.00 0.04 0.04 74
20211017021604 50 208 0.0 1.7 0.00 0.04 0.04 74
20211017020105 50 208 0.0 0.0 0.00 0.04 0.04 75
20211017014546 50 208 0.0 0.9 0.00 0.04 0.04 75
20211017013150 50 208 0.0 0.0 0.00 0.04 0.04 75
20211017011622 50 208 0.0 0.0 0.00 0.04 0.04 75
20211017010200 50 208 0.0 0.0 0.00 0.04 0.04 74
20211017004548 51 208 0.0 2.6 0.00 0.04 0.04 75
20211017003026 51 208 0.9 3.5 0.00 0.04 0.04 75
20211017001557 51 208 0.9 3.5 0.00 0.04 0.04 74
20211017000031 52 208 0.9 3.5 0.00 0.04 0.04 74
20211016234517 52 208 1.7 4.3 0.00 0.04 0.04 72
20211016233014 53 208 1.7 5.2 0.00 0.04 0.04 71
20211016231506 53 208 0.9 3.5 0.00 0.04 0.04 71
20211016230130 54 208 1.7 3.5 0.00 0.04 0.04 68
20211016224630 55 208 1.7 5.2 0.00 0.04 0.04 67
20211016223139 55 208 1.7 4.3 0.00 0.04 0.04 66
20211016221633 56 208 0.0 4.3 0.00 0.04 0.04 70
20211016220100 57 208 0.0 3.5 0.00 0.04 0.04 68
20211016214642 57 208 0.0 2.6 0.00 0.04 0.04 67
20211016213110 58 208 0.0 4.3 0.00 0.04 0.04 65
20211016211534 58 208 0.9 6.1 0.00 0.04 0.04 62
20211016210109 59 207 0.9 6.1 0.00 0.04 0.04 65
20211016204534 59 207 2.6 6.1 0.00 0.04 0.04 65
20211016203023 60 207 1.7 5.2 0.00 0.04 0.04 62
20211016201516 59 207 3.5 6.1 0.00 0.04 0.04 57
20211016200009 60 208 1.7 6.1 0.00 0.04 0.04 63
20211016194501 60 208 1.7 5.2 0.00 0.04 0.04 65
20211016193255 60 208 1.7 6.1 0.00 0.04 0.04 64
20211016191654 60 209 1.7 4.3 0.00 0.04 0.04 67
20211016190151 60 209 1.7 6.1 0.00 0.04 0.04 65
20211016184616 60 209 1.7 5.2 0.00 0.04 0.04 67
20211016183048 60 209 2.6 6.1 0.00 0.04 0.04 63
20211016181610 60 214 1.7 5.2 0.00 0.04 0.04 66
20211016180206 60 215 0.9 4.3 0.00 0.04 0.04 69
20211016174606 59 215 2.6 7.0 0.00 0.04 0.04 67
20211016173033 59 212 1.7 5.2 0.00 0.04 0.04 70
20211016171517 58 212 0.9 6.1 0.00 0.04 0.04 71
20211016170032 58 212 2.6 5.2 0.00 0.04 0.04 71
20211016164512 58 212 0.9 5.2 0.00 0.04 0.04 70
20211016163004 57 212 2.6 7.0 0.00 0.04 0.04 70
20211016161650 56 213 2.6 6.1 0.00 0.04 0.04 69